This is the latest recevied weather packets stored in our database for station/object OE6ATD-13. If no packets are shown the sender has not sent any weather packets the latest 10 day(s).
| Time | Temp. | Humidity | Pressure | Rain* | Wind** | Luminosity | Snow |
|---|---|---|---|---|---|---|---|
| 1778119531 | 15° C | 71% | 1009.5 hPa | 0 mm | - | 0 W/m² | - |
| 1778118917 | 15.56° C | 71% | 1009.5 hPa | 0 mm | - | 0 W/m² | - |
| 1778118328 | 15.56° C | 70% | 1009.5 hPa | 0 mm | - | 0 W/m² | - |
| 1778117725 | 15.56° C | 70% | 1009.3 hPa | 0 mm | - | 0 W/m² | - |
| 1778117120 | 16.11° C | 69% | 1009.3 hPa | 0 mm | - | 0 W/m² | - |
| 1778116516 | 16.11° C | 69% | 1009.2 hPa | 0 mm | - | 0 W/m² | - |
| 1778115927 | 16.11° C | 68% | 1009.1 hPa | 0 mm | - | 0 W/m² | - |
| 1778115323 | 16.11° C | 68% | 1009.2 hPa | 0 mm | - | 0 W/m² | - |
| 1778114719 | 16.11° C | 68% | 1009.2 hPa | 0 mm | - | 0 W/m² | - |
| 1778114129 | 16.11° C | 67% | 1009.2 hPa | 0 mm | - | 0 W/m² | - |
| 1778113525 | 16.67° C | 68% | 1009.2 hPa | 0 mm | - | 0 W/m² | - |
| 1778112921 | 16.11° C | 68% | 1009.3 hPa | 0 mm | - | 0 W/m² | - |
| 1778112317 | 16.11° C | 69% | 1009.5 hPa | 0 mm | - | 0 W/m² | - |
| 1778111728 | 16.11° C | 69% | 1009.4 hPa | 0 mm | - | 0 W/m² | - |
| 1778111123 | 16.11° C | 67% | 1009.5 hPa | 0 mm | - | 0 W/m² | - |
| 1778110519 | 16.67° C | 67% | 1009.5 hPa | 0 mm | - | 0 W/m² | - |
| 1778109930 | 16.67° C | 67% | 1009.5 hPa | 0 mm | - | 0 W/m² | - |
| 1778109326 | 16.67° C | 67% | 1009.6 hPa | 0 mm | - | 0 W/m² | - |
| 1778108721 | 16.67° C | 66% | 1009.6 hPa | 0 mm | - | 0 W/m² | - |
| 1778108117 | 16.67° C | 66% | 1009.4 hPa | 0 mm | - | 0 W/m² | - |
| 1778107529 | 16.67° C | 66% | 1009.5 hPa | 0 mm | - | 0 W/m² | - |
| 1778106924 | 16.67° C | 66% | 1009.3 hPa | 0 mm | - | 0 W/m² | - |
| 1778106320 | 17.22° C | 66% | 1009.2 hPa | 0 mm | - | 0 W/m² | - |
| 1778105716 | 17.22° C | 66% | 1009.2 hPa | 0 mm | - | 0 W/m² | - |
| 1778105126 | 17.22° C | 66% | 1009.1 hPa | 0 mm | - | 0 W/m² | - |
* Rain latest hour (hover to see other rain measurements)
** Current wind speed in m/s (hover to see current wind gust speed)